TimeEDT,TemperatureF,Dew PointF,Humidity,Sea Level PressureIn,VisibilityMPH,Wind Direction,Wind SpeedMPH,Gust SpeedMPH,PrecipitationIn,Events,Conditions,WindDirDegrees,DateUTC
12:53 AM,39.9,37.0,89,30.08,4.0,ENE,8.1,-,N/A,,Overcast,70,2013-03-18 04:53:00
1:23 AM,39.2,37.4,93,30.11,4.0,ENE,8.1,-,N/A,,Overcast,60,2013-03-18 05:23:00
1:53 AM,39.0,37.0,93,30.08,4.0,NE,8.1,-,N/A,,Overcast,50,2013-03-18 05:53:00
2:15 AM,39.2,35.6,87,30.12,8.0,NE,8.1,-,N/A,,Overcast,50,2013-03-18 06:15:00
2:53 AM,39.0,37.0,93,30.08,4.0,NE,8.1,-,N/A,,Overcast,40,2013-03-18 06:53:00
3:53 AM,37.9,36.0,93,30.08,4.0,NNE,10.4,-,N/A,,Overcast,30,2013-03-18 07:53:00
4:53 AM,37.9,36.0,93,30.08,5.0,NNE,4.6,-,N/A,,Overcast,20,2013-03-18 08:53:00
5:53 AM,37.9,36.0,93,30.09,9.0,NE,5.8,-,N/A,,Overcast,40,2013-03-18 09:53:00
6:53 AM,37.9,36.0,93,30.10,7.0,NE,5.8,-,N/A,,Overcast,50,2013-03-18 10:53:00
7:53 AM,37.9,35.1,89,30.11,6.0,ENE,9.2,-,N/A,,Overcast,60,2013-03-18 11:53:00
8:22 AM,37.4,35.6,93,30.13,2.0,ENE,6.9,-,N/A,,Overcast,60,2013-03-18 12:22:00
8:53 AM,37.9,36.0,93,30.12,1.8,NE,4.6,-,0.00,Rain,Light Rain,50,2013-03-18 12:53:00
9:00 AM,37.4,35.6,93,30.14,2.5,NE,4.6,-,0.00,Rain,Light Rain,40,2013-03-18 13:00:00
9:08 AM,37.4,35.6,93,30.13,1.8,NE,8.1,-,0.00,Rain,Light Rain,50,2013-03-18 13:08:00
9:21 AM,37.4,35.6,93,30.13,3.0,NE,6.9,-,0.00,Rain,Light Rain,40,2013-03-18 13:21:00
9:28 AM,37.4,35.6,93,30.12,2.5,NE,8.1,-,0.00,,Overcast,50,2013-03-18 13:28:00
9:53 AM,37.9,36.0,93,30.10,5.0,NE,6.9,-,0.00,,Overcast,40,2013-03-18 13:53:00
10:53 AM,37.9,35.1,89,30.10,6.0,ENE,6.9,-,0.00,,Overcast,60,2013-03-18 14:53:00
11:53 AM,37.9,36.0,93,30.09,2.5,ENE,5.8,-,N/A,,Overcast,60,2013-03-18 15:53:00
12:35 PM,37.4,35.6,93,30.08,4.0,NE,6.9,-,N/A,,Overcast,50,2013-03-18 16:35:00
12:53 PM,39.0,37.0,93,30.05,4.0,ENE,8.1,-,N/A,,Overcast,60,2013-03-18 16:53:00
1:53 PM,39.0,37.0,93,30.03,5.0,North,4.6,-,0.00,Rain,Light Rain,10,2013-03-18 17:53:00
2:53 PM,39.0,36.0,89,29.97,5.0,ENE,6.9,-,0.00,,Overcast,70,2013-03-18 18:53:00
3:53 PM,39.0,37.0,93,29.96,2.5,East,3.5,-,0.00,Rain,Light Rain,80,2013-03-18 19:53:00
4:13 PM,39.2,37.4,93,29.98,4.0,NNW,4.6,-,0.01,Rain,Light Rain,340,2013-03-18 20:13:00
4:53 PM,39.0,37.0,93,29.95,4.0,NNE,5.8,-,0.02,Rain,Light Rain,30,2013-03-18 20:53:00
5:16 PM,39.2,37.4,93,29.96,2.5,NNE,4.6,-,0.00,Rain,Light Rain,20,2013-03-18 21:16:00
5:24 PM,39.2,37.4,93,29.94,1.8,ENE,6.9,-,0.00,Rain,Light Rain,60,2013-03-18 21:24:00
5:36 PM,39.2,37.4,93,29.93,3.0,East,4.6,-,0.00,Rain,Light Rain,80,2013-03-18 21:36:00
5:53 PM,39.0,37.0,93,29.94,2.0,North,4.6,-,0.05,Rain,Heavy Rain,360,2013-03-18 21:53:00
6:04 PM,39.2,37.4,93,30.00,5.0,NW,9.2,-,0.01,Rain,Light Rain,320,2013-03-18 22:04:00
6:15 PM,39.2,37.4,93,29.99,1.8,North,9.2,17.3,0.09,Rain,Heavy Rain,360,2013-03-18 22:15:00
6:29 PM,39.2,37.4,93,29.98,3.0,North,3.5,-,0.12,Rain,Light Rain,10,2013-03-18 22:29:00
6:37 PM,39.2,37.4,93,29.97,3.0,ESE,3.5,-,0.13,Rain,Rain,120,2013-03-18 22:37:00
6:40 PM,39.2,37.4,93,29.95,2.5,East,4.6,-,0.14,Rain,Rain,100,2013-03-18 22:40:00
6:53 PM,39.0,37.0,93,29.97,1.2,NNE,4.6,-,0.23,Rain,Heavy Rain,30,2013-03-18 22:53:00
7:12 PM,39.2,37.4,93,29.96,3.0,NNE,6.9,-,0.06,Rain,Rain,30,2013-03-18 23:12:00
7:23 PM,39.2,37.4,93,29.98,8.0,Calm,Calm,-,0.06,Rain,Light Rain,0,2013-03-18 23:23:00
7:34 PM,39.2,37.4,93,29.97,10.0,NNE,3.5,-,0.06,Rain,Light Rain,30,2013-03-18 23:34:00
7:53 PM,39.0,37.0,93,29.94,10.0,East,3.5,-,0.07,Rain,Light Rain,90,2013-03-18 23:53:00
8:06 PM,39.2,35.6,87,29.95,10.0,ENE,4.6,-,0.00,Rain,Light Rain,70,2013-03-19 00:06:00
8:13 PM,39.2,35.6,87,29.94,10.0,Variable,3.5,-,0.00,Rain,Light Rain,0,2013-03-19 00:13:00
8:20 PM,39.2,35.6,87,29.94,10.0,ENE,3.5,-,0.00,Rain,Light Rain,70,2013-03-19 00:20:00
8:30 PM,39.2,37.4,93,29.94,10.0,ENE,3.5,-,0.00,Rain,Light Rain,60,2013-03-19 00:30:00
8:53 PM,37.9,36.0,93,29.91,10.0,Calm,Calm,-,0.00,Rain,Light Rain,0,2013-03-19 00:53:00
9:28 PM,37.4,35.6,93,29.89,9.0,NE,3.5,-,0.00,,Overcast,50,2013-03-19 01:28:00
9:53 PM,37.9,36.0,93,29.84,9.0,Variable,3.5,-,0.00,,Overcast,0,2013-03-19 01:53:00
10:53 PM,37.9,36.0,93,29.87,9.0,Calm,Calm,-,N/A,,Overcast,0,2013-03-19 02:53:00
11:26 PM,37.4,35.6,93,29.89,7.0,Calm,Calm,-,N/A,,Overcast,0,2013-03-19 03:26:00
11:53 PM,37.9,36.0,93,29.87,8.0,Calm,Calm,-,N/A,,Overcast,0,2013-03-19 03:53:00